Time,TemperatureF,DewpointF,PressureIn,WindDirection,WindDirectionDegrees,WindSpeedMPH,WindSpeedGustMPH,Humidity,HourlyPrecipIn,Conditions,Clouds,dailyrainin,SolarRadiationWatts/m^2,SoftwareType,DateUTC
2013-02-19 00:02:00,40.3,31.0,30.07,North,355,3.0,15.0,70,0.00,,,0.00,0,weatherlink.com 1.10,2013-02-19 06:02:00,
2013-02-19 00:18:00,39.7,30.0,30.08,NNW,334,11.0,16.0,68,0.00,,,0.00,0,weatherlink.com 1.10,2013-02-19 06:18:00,
2013-02-19 00:32:00,38.9,29.0,30.09,NW,317,3.0,16.0,69,0.00,,,0.00,0,weatherlink.com 1.10,2013-02-19 06:32:00,
2013-02-19 00:47:00,38.3,29.0,30.10,NNW,328,4.0,18.0,69,0.00,,,0.00,0,weatherlink.com 1.10,2013-02-19 06:47:00,
2013-02-19 01:03:00,37.6,29.0,30.11,NW,314,2.0,9.0,71,0.00,,,0.00,0,weatherlink.com 1.10,2013-02-19 07:03:00,
2013-02-19 01:18:00,36.9,27.0,30.12,WNW,289,4.0,14.0,68,0.00,,,0.00,0,weatherlink.com 1.10,2013-02-19 07:18:00,
2013-02-19 01:32:00,36.3,27.0,30.12,North,355,8.0,15.0,68,0.00,,,0.00,0,weatherlink.com 1.10,2013-02-19 07:32:00,
2013-02-19 01:48:00,36.0,26.0,30.13,NNW,330,6.0,13.0,67,0.00,,,0.00,0,weatherlink.com 1.10,2013-02-19 07:48:00,
2013-02-19 02:03:00,35.6,26.0,30.13,NW,318,4.0,17.0,68,0.00,,,0.00,0,weatherlink.com 1.10,2013-02-19 08:03:00,
2013-02-19 02:18:00,35.1,25.0,30.13,North,360,3.0,11.0,67,0.00,,,0.00,0,weatherlink.com 1.10,2013-02-19 08:18:00,
2013-02-19 02:34:00,34.9,25.0,30.14,WNW,302,5.0,14.0,66,0.00,,,0.00,0,weatherlink.com 1.10,2013-02-19 08:34:00,
2013-02-19 02:48:00,34.7,23.0,30.14,NW,311,6.0,11.0,63,0.00,,,0.00,0,weatherlink.com 1.10,2013-02-19 08:48:00,
2013-02-19 03:03:00,34.3,23.0,30.15,NNW,328,7.0,11.0,64,0.00,,,0.00,0,weatherlink.com 1.10,2013-02-19 09:03:00,
2013-02-19 03:18:00,34.1,22.0,30.15,NW,322,8.0,15.0,62,0.00,,,0.00,0,weatherlink.com 1.10,2013-02-19 09:18:00,
2013-02-19 03:33:00,33.8,23.0,30.15,NW,314,3.0,9.0,64,0.00,,,0.00,0,weatherlink.com 1.10,2013-02-19 09:33:00,
2013-02-19 03:48:00,33.3,23.0,30.15,NNW,338,6.0,10.0,65,0.00,,,0.00,0,weatherlink.com 1.10,2013-02-19 09:48:00,
2013-02-19 04:03:00,33.1,22.0,30.15,NNW,328,3.0,8.0,64,0.00,,,0.00,0,weatherlink.com 1.10,2013-02-19 10:03:00,
2013-02-19 04:19:00,32.9,22.0,30.15,NNW,337,2.0,7.0,65,0.00,,,0.00,0,weatherlink.com 1.10,2013-02-19 10:19:00,
2013-02-19 04:33:00,32.7,22.0,30.16,North,351,5.0,8.0,65,0.00,,,0.00,0,weatherlink.com 1.10,2013-02-19 10:33:00,
2013-02-19 04:48:00,32.4,22.0,30.16,NNW,331,2.0,6.0,65,0.00,,,0.00,0,weatherlink.com 1.10,2013-02-19 10:48:00,
2013-02-19 05:03:00,32.2,22.0,30.17,NW,325,0.0,4.0,65,0.00,,,0.00,0,weatherlink.com 1.10,2013-02-19 11:03:00,
2013-02-19 05:18:00,31.9,22.0,30.17,NW,322,4.0,4.0,66,0.00,,,0.00,0,weatherlink.com 1.10,2013-02-19 11:18:00,
2013-02-19 05:33:00,31.7,21.0,30.18,NW,316,1.0,5.0,66,0.00,,,0.00,0,weatherlink.com 1.10,2013-02-19 11:33:00,
2013-02-19 05:48:00,31.6,21.0,30.18,NW,315,2.0,5.0,65,0.00,,,0.00,0,weatherlink.com 1.10,2013-02-19 11:48:00,
2013-02-19 06:04:00,31.3,21.0,30.19,NNW,335,1.0,3.0,65,0.00,,,0.00,0,weatherlink.com 1.10,2013-02-19 12:04:00,
2013-02-19 06:18:00,30.8,20.0,30.20,NNW,329,1.0,3.0,65,0.00,,,0.00,0,weatherlink.com 1.10,2013-02-19 12:18:00,
2013-02-19 06:33:00,30.2,21.0,30.20,West,271,2.0,4.0,68,0.00,,,0.00,0,weatherlink.com 1.10,2013-02-19 12:33:00,
2013-02-19 06:48:00,30.0,21.0,30.21,West,275,3.0,4.0,69,0.00,,,0.00,0,weatherlink.com 1.10,2013-02-19 12:48:00,
2013-02-19 07:04:00,30.0,21.0,30.21,West,275,1.0,5.0,69,0.00,,,0.00,9,weatherlink.com 1.10,2013-02-19 13:04:00,
2013-02-19 07:18:00,29.9,21.0,30.21,West,277,3.0,6.0,70,0.00,,,0.00,14,weatherlink.com 1.10,2013-02-19 13:18:00,
2013-02-19 07:34:00,30.4,21.0,30.22,WNW,302,2.0,6.0,69,0.00,,,0.00,19,weatherlink.com 1.10,2013-02-19 13:34:00,
2013-02-19 07:49:00,30.9,21.0,30.23,WNW,283,1.0,5.0,68,0.00,,,0.00,25,weatherlink.com 1.10,2013-02-19 13:49:00,
2013-02-19 08:04:00,31.5,21.0,30.23,WSW,251,2.0,6.0,65,0.00,,,0.00,95,weatherlink.com 1.10,2013-02-19 14:04:00,
2013-02-19 08:19:00,32.2,22.0,30.25,West,276,0.0,5.0,67,0.00,,,0.00,165,weatherlink.com 1.10,2013-02-19 14:19:00,
2013-02-19 08:34:00,32.8,23.0,30.25,West,281,1.0,5.0,66,0.00,,,0.00,248,weatherlink.com 1.10,2013-02-19 14:34:00,
2013-02-19 08:49:00,34.3,22.0,30.26,NW,316,8.0,10.0,61,0.00,,,0.00,359,weatherlink.com 1.10,2013-02-19 14:49:00,
2013-02-19 09:04:00,35.2,20.0,30.26,NW,321,6.0,17.0,55,0.00,,,0.00,387,weatherlink.com 1.10,2013-02-19 15:04:00,
2013-02-19 09:19:00,35.6,20.0,30.26,NNW,331,11.0,19.0,54,0.00,,,0.00,313,weatherlink.com 1.10,2013-02-19 15:19:00,
2013-02-19 09:34:00,36.1,20.0,30.26,North,360,10.0,19.0,53,0.00,,,0.00,336,weatherlink.com 1.10,2013-02-19 15:34:00,
2013-02-19 09:49:00,37.0,21.0,30.27,NW,325,7.0,17.0,53,0.00,,,0.00,227,weatherlink.com 1.10,2013-02-19 15:49:00,
2013-02-19 10:04:00,37.2,22.0,30.27,NNW,335,9.0,18.0,54,0.00,,,0.00,420,weatherlink.com 1.10,2013-02-19 16:04:00,
2013-02-19 10:19:00,37.9,23.0,30.28,NW,313,3.0,14.0,55,0.00,,,0.00,520,weatherlink.com 1.10,2013-02-19 16:19:00,
2013-02-19 10:34:00,38.6,22.0,30.28,North,355,11.0,17.0,52,0.00,,,0.00,434,weatherlink.com 1.10,2013-02-19 16:34:00,
2013-02-19 10:49:00,39.2,22.0,30.29,NNW,333,5.0,16.0,51,0.00,,,0.00,413,weatherlink.com 1.10,2013-02-19 16:49:00,
2013-02-19 11:04:00,40.2,22.0,30.29,WNW,292,14.0,15.0,49,0.00,,,0.00,700,weatherlink.com 1.10,2013-02-19 17:04:00,
2013-02-19 11:19:00,40.8,23.0,30.29,WNW,296,5.0,15.0,50,0.00,,,0.00,717,weatherlink.com 1.10,2013-02-19 17:19:00,
2013-02-19 11:35:00,41.5,22.0,30.29,WNW,298,13.0,18.0,47,0.00,,,0.00,679,weatherlink.com 1.10,2013-02-19 17:35:00,
2013-02-19 11:50:00,42.3,23.0,30.29,North,11,3.0,16.0,46,0.00,,,0.00,589,weatherlink.com 1.10,2013-02-19 17:50:00,
2013-02-19 12:05:00,43.1,23.0,30.28,NNW,340,6.0,21.0,46,0.00,,,0.00,656,weatherlink.com 1.10,2013-02-19 18:05:00,
2013-02-19 12:19:00,43.4,22.0,30.28,NW,317,18.0,18.0,43,0.00,,,0.00,267,weatherlink.com 1.10,2013-02-19 18:19:00,
2013-02-19 12:34:00,44.1,23.0,30.28,NW,313,8.0,22.0,44,0.00,,,0.00,520,weatherlink.com 1.10,2013-02-19 18:34:00,
2013-02-19 12:50:00,44.6,23.0,30.27,NNE,19,5.0,27.0,42,0.00,,,0.00,381,weatherlink.com 1.10,2013-02-19 18:50:00,
2013-02-19 13:04:00,44.9,21.0,30.27,NNW,332,17.0,21.0,38,0.00,,,0.00,566,weatherlink.com 1.10,2013-02-19 19:04:00,
2013-02-19 13:19:00,45.7,22.0,30.27,NW,310,10.0,17.0,40,0.00,,,0.00,527,weatherlink.com 1.10,2013-02-19 19:19:00,
2013-02-19 13:35:00,46.5,22.0,30.27,NNW,330,9.0,18.0,38,0.00,,,0.00,531,weatherlink.com 1.10,2013-02-19 19:35:00,
2013-02-19 13:50:00,46.5,19.0,30.27,WNW,298,4.0,19.0,34,0.00,,,0.00,439,weatherlink.com 1.10,2013-02-19 19:50:00,
2013-02-19 14:05:00,46.3,18.0,30.26,NNW,337,7.0,19.0,33,0.00,,,0.00,401,weatherlink.com 1.10,2013-02-19 20:05:00,
2013-02-19 14:20:00,47.0,17.0,30.26,NNW,336,10.0,17.0,30,0.00,,,0.00,621,weatherlink.com 1.10,2013-02-19 20:20:00,
2013-02-19 14:35:00,46.8,17.0,30.26,NNW,331,5.0,19.0,30,0.00,,,0.00,318,weatherlink.com 1.10,2013-02-19 20:35:00,
2013-02-19 14:50:00,47.2,15.0,30.26,NNW,336,8.0,17.0,28,0.00,,,0.00,489,weatherlink.com 1.10,2013-02-19 20:50:00,
2013-02-19 15:05:00,47.4,15.0,30.26,NNW,333,16.0,17.0,27,0.00,,,0.00,499,weatherlink.com 1.10,2013-02-19 21:05:00,
2013-02-19 15:35:00,47.4,16.0,30.27,NW,310,15.0,16.0,28,0.00,,,0.00,396,weatherlink.com 1.10,2013-02-19 21:35:00,
2013-02-19 15:50:00,47.8,16.0,30.27,NNW,340,5.0,14.0,28,0.00,,,0.00,380,weatherlink.com 1.10,2013-02-19 21:50:00,
2013-02-19 16:05:00,47.7,15.0,30.27,NNW,339,5.0,16.0,27,0.00,,,0.00,329,weatherlink.com 1.10,2013-02-19 22:05:00,
2013-02-19 16:20:00,47.9,15.0,30.26,NNW,327,12.0,15.0,27,0.00,,,0.00,281,weatherlink.com 1.10,2013-02-19 22:20:00,
2013-02-19 16:35:00,47.3,14.0,30.26,NNW,336,9.0,16.0,26,0.00,,,0.00,220,weatherlink.com 1.10,2013-02-19 22:35:00,
2013-02-19 16:50:00,47.1,15.0,30.25,NNW,342,8.0,13.0,27,0.00,,,0.00,158,weatherlink.com 1.10,2013-02-19 22:50:00,
2013-02-19 17:05:00,47.0,16.0,30.25,NNW,332,3.0,15.0,29,0.00,,,0.00,97,weatherlink.com 1.10,2013-02-19 23:05:00,
2013-02-19 17:20:00,46.2,15.0,30.24,North,5,4.0,13.0,28,0.00,,,0.00,53,weatherlink.com 1.10,2013-02-19 23:20:00,
2013-02-19 17:35:00,45.6,16.0,30.25,NW,315,2.0,13.0,30,0.00,,,0.00,26,weatherlink.com 1.10,2013-02-19 23:35:00,
2013-02-19 17:50:00,44.3,15.0,30.25,NNW,347,3.0,7.0,30,0.00,,,0.00,7,weatherlink.com 1.10,2013-02-19 23:50:00,
2013-02-19 18:05:00,43.3,15.0,30.26,NNW,340,5.0,7.0,32,0.00,,,0.00,0,weatherlink.com 1.10,2013-02-20 00:05:00,
2013-02-19 18:20:00,42.7,17.0,30.26,NNW,344,3.0,5.0,35,0.00,,,0.00,0,weatherlink.com 1.10,2013-02-20 00:20:00,
2013-02-19 18:35:00,42.0,15.0,30.27,NNW,343,2.0,4.0,34,0.00,,,0.00,0,weatherlink.com 1.10,2013-02-20 00:35:00,
2013-02-19 18:50:00,41.5,16.0,30.28,NNW,336,4.0,5.0,35,0.00,,,0.00,0,weatherlink.com 1.10,2013-02-20 00:50:00,
2013-02-19 19:05:00,40.9,19.0,30.29,NNW,345,0.0,6.0,42,0.00,,,0.00,0,weatherlink.com 1.10,2013-02-20 01:05:00,
2013-02-19 19:20:00,39.7,17.0,30.30,NNW,345,0.0,3.0,40,0.00,,,0.00,0,weatherlink.com 1.10,2013-02-20 01:20:00,
2013-02-19 19:35:00,39.3,19.0,30.30,NNW,345,1.0,3.0,44,0.00,,,0.00,0,weatherlink.com 1.10,2013-02-20 01:35:00,
2013-02-19 19:50:00,38.4,19.0,30.29,North,360,0.0,3.0,46,0.00,,,0.00,0,weatherlink.com 1.10,2013-02-20 01:50:00,
2013-02-19 20:05:00,36.8,21.0,30.29,North,360,0.0,0.0,53,0.00,,,0.00,0,weatherlink.com 1.10,2013-02-20 02:05:00,
2013-02-19 20:20:00,35.1,21.0,30.29,North,360,0.0,0.0,57,0.00,,,0.00,0,weatherlink.com 1.10,2013-02-20 02:20:00,
2013-02-19 20:35:00,34.2,23.0,30.28,North,360,0.0,0.0,64,0.00,,,0.00,0,weatherlink.com 1.10,2013-02-20 02:35:00,
2013-02-19 20:50:00,33.2,24.0,30.28,North,360,0.0,0.0,70,0.00,,,0.00,0,weatherlink.com 1.10,2013-02-20 02:50:00,
2013-02-19 21:05:00,32.1,25.0,30.30,North,360,0.0,0.0,74,0.00,,,0.00,0,weatherlink.com 1.10,2013-02-20 03:05:00,
2013-02-19 21:20:00,31.4,25.0,30.30,North,360,0.0,0.0,77,0.00,,,0.00,0,weatherlink.com 1.10,2013-02-20 03:20:00,
2013-02-19 21:35:00,30.6,25.0,30.31,North,360,0.0,0.0,78,0.00,,,0.00,0,weatherlink.com 1.10,2013-02-20 03:35:00,
2013-02-19 21:50:00,29.7,23.0,30.32,North,360,0.0,0.0,76,0.00,,,0.00,0,weatherlink.com 1.10,2013-02-20 03:50:00,
2013-02-19 22:05:00,29.2,23.0,30.32,North,360,0.0,0.0,76,0.00,,,0.00,0,weatherlink.com 1.10,2013-02-20 04:05:00,
2013-02-19 22:20:00,29.0,23.0,30.32,North,360,0.0,0.0,79,0.00,,,0.00,0,weatherlink.com 1.10,2013-02-20 04:20:00,
2013-02-19 22:35:00,28.7,24.0,30.33,North,360,0.0,1.0,81,0.00,,,0.00,0,weatherlink.com 1.10,2013-02-20 04:35:00,
2013-02-19 22:50:00,28.3,24.0,30.33,North,360,0.0,0.0,84,0.00,,,0.00,0,weatherlink.com 1.10,2013-02-20 04:50:00,
2013-02-19 23:05:00,28.0,24.0,30.32,North,360,0.0,0.0,85,0.00,,,0.00,0,weatherlink.com 1.10,2013-02-20 05:05:00,
2013-02-19 23:20:00,27.8,24.0,30.32,North,360,0.0,1.0,86,0.00,,,0.00,0,weatherlink.com 1.10,2013-02-20 05:20:00,
2013-02-19 23:35:00,27.4,24.0,30.32,North,360,0.0,0.0,86,0.00,,,0.00,0,weatherlink.com 1.10,2013-02-20 05:35:00,
2013-02-19 23:51:00,27.3,24.0,30.32,North,360,0.0,0.0,86,0.00,,,0.00,0,weatherlink.com 1.10,2013-02-20 05:51:00,